ORBCOMM FM16 [+]

Last updated on Fri Nov 22 2019 04:19:44 GMT+0000 (Coordinated Universal Time)

1 25417U 98046E 19325.17771845 -.00000112 00000-0 10188-4 0 9993 2 25417 44.9972 50.3759 0005588 210.7288 149.3232 14.33149871112233
UTC large
Height (km)
Speed (km/s)
/
Latitude / Longitude
Inclination (degrees)
Orbital Period (minutes)
Azimuth
Elevation
Range (km)
Doppler Factor

Next 0 passes for location: London (51.5072 / 0.1276)

Sorry there are no passes over London.